Simultaneous Nadir Overpasses (SNOs) Predictions

Prediction of SNOs between GOES-16 and AQUA Satellite Orbit:

Table of predicted SNOs for the next 14.0 days since TLE Epoch: 8/18/2018
Index Date Time (GOES-16) GOES-16 Lat,Lon AQUA Lat,Lon Distance(km) Time Diff (sec)
1 08/19/2018 06:39:07 -0.03, -75.21 0.06, -75.50 33.42 80
2 08/21/2018 06:24:14 -0.03, -75.23 -0.58, -72.54 305.94 80
3 08/21/2018 18:45:38 0.03, -75.23 -0.48, -77.74 284.10 80
4 08/23/2018 18:36:05 0.04, -75.27 0.16, -74.78 55.86 80
5 08/25/2018 18:23:52 0.04, -75.30 0.79, -71.82 396.45 80
6 08/26/2018 06:45:08 -0.05, -75.32 0.28, -76.98 188.18 80
7 08/28/2018 06:30:14 -0.05, -75.36 -0.30, -74.01 153.34 80
8 08/28/2018 18:51:38 0.05, -75.37 -0.75, -79.21 436.23 80
9 08/30/2018 06:18:01 -0.05, -75.41 -0.95, -71.05 495.30 80
10 08/30/2018 18:39:25 0.05, -75.42 -0.10, -76.25 94.17 80




NCC Satellite Simultaneous Nadir Overpasses (SNOs) Prediction Service
